Location: Livorno
(43.5500°N, 10.3170°E)
Time: 23:18:13
(UTC+02:00)

ISS - Visible Passes

Search period start: 18 September 2018 00:00
Search period end: 28 September 2018 00:00
Orbit: 402 x 408 km, 51.6° (Epoch: 19 September)

Date Brightness Start Highest point End Pass type
(mag) Time Alt. Az. Time Alt. Az. Time Alt. Az.
18 Sep -2.5 05:39:14 23° SSW 05:39:14 23° SSW 05:41:18 10° SSE visible
20 Sep -1.4 20:33:29 10° SSE 20:33:48 11° SSE 20:33:48 11° SSE visible
21 Sep -1.9 21:16:17 10° SW 21:17:37 22° SW 21:17:37 22° SW visible
22 Sep -3.0 20:24:35 10° SSW 20:27:35 33° SE 20:28:27 28° ESE visible
22 Sep -0.5 22:00:54 10° W 22:01:10 12° W 22:01:10 12° W visible
23 Sep -3.4 21:08:38 10° WSW 21:11:44 60° NW 21:11:44 60° NW visible
24 Sep -3.9 20:16:33 10° SW 20:19:51 77° SE 20:22:08 18° ENE visible
24 Sep -0.8 21:53:46 10° WNW 21:54:49 17° WNW 21:54:49 17° WNW visible
25 Sep -2.4 21:01:20 10° W 21:04:22 34° NNW 21:05:02 31° N visible
26 Sep -3.1 20:08:58 10° WSW 20:12:11 51° NNW 20:15:09 12° NE visible
26 Sep -0.8 21:46:38 10° WNW 21:47:49 16° NW 21:47:49 16° NW visible
27 Sep -1.9 20:54:09 10° WNW 20:56:54 24° NNW 20:57:49 21° NNE visible
